Regional Weather Roundup
Issued by NWS Green Bay, WI

Current Version | Previous Version | Text Only | Print | Product List | Glossary On
Versions: 1 2 3 4 5 6 7 8 9 10 11 12 13 14 15 16 17 18 19 20 21 22 23 24 25 26 27 28 29 30 31 32 33 34 35 36 37 38 39 40 41 42 43 44 45 46 47 48 49 50
000
ASUS43 KGRB 292111
RWRGRB

NORTH-CENTRAL AND NORTHEAST WISCONSIN REGIONAL WEATHER ROUNDUP
NATIONAL WEATHER SERVICE GREEN BAY WI
400 PM CDT SAT APR 29 2017

WIZ005-009-010>012-018-019-292200-
NORTH CENTRAL WISCONSIN

CITY           SKY/WX    TMP DP  RH WIND       PRES   REMARKS
IRONWOOD       CLOUDY    41  23  48 N10       30.37R
MANITOWISH WTR CLOUDY    47  22  36 E3        30.31S
ARBOR VITAE    CLOUDY    51  23  33 NE8       30.30R
EAGLE RIVER    CLOUDY    49  20  32 NE8       30.30R
LAND O LAKES   CLOUDY    49  19  30 E8        30.32S
RHINELANDER    CLOUDY    51  25  36 E8        30.29F
PHILLIPS       PTSUNNY   49  24  36 E5        30.30R
ANTIGO         CLOUDY    50  28  43 NE8       30.27S
TOMAHAWK       CLOUDY    50  25  36 NE7       30.29S
MERRILL        CLOUDY    51  28  41 E9G16     30.28S
$$

WIZ013-073-292200-
NORTHEAST WISCONSIN

CITY           SKY/WX    TMP DP  RH WIND       PRES   REMARKS
IRON MOUNTAIN  MOSUNNY   51  17  26 NE8G17    30.29S
MARINETTE      MOSUNNY   46  26  45 E13       30.30F
OCONTO         PTSUNNY   46  27  48 E12       30.29F
$$

WIZ017-030-035>037-045-292200-
CENTRAL WISCONSIN

CITY           SKY/WX    TMP DP  RH WIND       PRES   REMARKS
MEDFORD        CLOUDY    50  27  40 NE8       30.27S
WAUSAU         PTSUNNY   51  27  39 E8        30.25S
MOSINEE        CLOUDY    52  28  40 NE10G18   30.27S
MARSHFIELD     CLOUDY    50  27  40 E10       30.24F
WISC RAPIDS    CLOUDY    49  29  46 E9        30.27S
STEVENS POINT  CLOUDY    47  27  46 E10       30.27F
WAUPACA        CLOUDY    49  31  50 E8        30.28F
SHAWANO        CLOUDY    50  34  54 E8        30.29S
CLINTONVILLE   CLOUDY    46  32  57 E8        30.29R
WAUTOMA        CLOUDY    46  29  51 NE15G22   30.24F
$$

WIZ038-039-048-051-292200-
FOX VALLEY

CITY           SKY/WX    TMP DP  RH WIND       PRES   REMARKS
NWS GREEN BAY  CLOUDY    48  32  53 NE14      30.29R
APPLETON       CLOUDY    46  23  39 NE16G23   30.26F
OSHKOSH        CLOUDY    45  30  55 NE17G24   30.25F
FOND DU LAC    CLOUDY    44  29  55 NE25G31   30.21F
$$

WIZ022-050-052-292200-
EAST CENTRAL WISCONSIN

CITY           SKY/WX    TMP DP  RH WIND       PRES   REMARKS
EPHRAIM        FAIR      45  29  53 N8        30.28F
WASHINGTON ISL FAIR      47  27  45 NE8       30.29F
STURGEON BAY   PTSUNNY   45  29  53 E9        30.29F
MANITOWOC      CLOUDY    42  29  59 NE13G22   30.29F
SHEBOYGAN      CLOUDY    40  33  76 NE23G33   30.23F
$$

LMZ563-521-522-541>543-292200-
LAKESHORE

STATION/POSITION TIME  TEMP    WIND        PRES    VSBY  WAVE
                       AIR SEA DIR/SP/G                  HT/PER
                 (UTC) (F)     (DEG/KT/KT) (MB)    (MI)  (FT/S)
SHEBOYGAN LKSHOR 2100   38      10/ 29/ 31 1023.8F
KEWAUNEE LKSHORE 2048   40      40/  9/ 13 1025.4F
NORTHPORT PIER   2040   45        CALM     1026.1F
N MID LAKE BUOY  2050   38 38  260/  2/  4 1027.4F         1
CHAMBERS ISLAND  2030   44      40/ 10/ 16 1025.7F
MENOMINEE LKSHOR 2048   44      80/  8/ 12 1025.0F
$$



USA.gov is the U.S. government's official web portal to all federal, state and local government web resources and services.